User: anonymous   Login
Location: Banksville Park
(38.5557°N, 75.1182°W)
Time: 20:30:14
(UTC+00:00)
Language:

BREEZE-M DEB (TANK) - Orbit

View from above orbital plane
View from above orbital plane
View from above satellite
View from above satellite

Ground track
Ground track

The orbit data is extracted from the following two-line orbital elements,

1 33374U 08044B   20333.11651301  .00002338  00000-0  58440-3 0  9995
2 33374  49.4058 118.1170 5440667 122.0701 302.3269  4.88067051215457
Epoch (UTC): 28 November 2020 02:47:46
Eccentricity: 0.5440667
inclination: 49.4058°
perigee height: 315 km
apogee height: 16290 km
right ascension of ascending node: 118.1170°
argument of perigee: 122.0701°
revolutions per day: 4.88067051
mean anomaly at epoch: 302.3269°
orbit number at epoch: 21545

The dashed part of the orbit path shows where the satellite is in the earth's shadow,  

DLR